# Land Stadt Wetter Temperatur Luftdruck Luftfeuchtigkeit Sichtweite Windgeschwindigkeit Windrichtung Ortszeit
1 ad Andorra la Vella Clear 6 1028 80 10000 13 14 02.08.2018 14:22
2 ae Dubai Clear 24 1015 64 10000 15 10 02.08.2018 14:21
3 af Kabul Clouds -1 1028 82 10000 5 223 02.08.2018 14:21
4 ar Esquel Clouds 14 1017 35 10000 8 250 02.08.2018 14:22
5 ar Buenos Aires Clouds 25 1015 74 10000 19 100 02.08.2018 14:22
6 ar Ushuaia Drizzle 12 1004 76 10000 13 220 02.08.2018 14:22
7 at Innsbruck Clouds 8 1020 39 10000 24 310 02.08.2018 14:23
8 at Wien Clouds 6 1016 75 10000 43 281 02.08.2018 14:22
9 au Darwin Clouds 29 1007 82 10000 17 310 02.08.2018 14:22
10 au Alice Springs Clear 22 1009 83 10000 0 0 02.08.2018 14:21
11 au Perth Clear 24 1012 40 10000 33 110 02.08.2018 14:21
12 au Sydney Clouds 22 1000 78 10000 9 30 02.08.2018 14:22
13 bg Sofia Clouds 6 1019 50 10000 28 280 02.08.2018 14:21
14 bg Warna Clouds 8 1014 74 10000 32 270 02.08.2018 14:21
15 bo Potisi Clouds 6 1043 81 10000 15 60 02.08.2018 14:22
16 bo La Paz Clouds 11 1039 76 6000 9 90 02.08.2018 14:22
17 br Rio de Janeiro Clear 28 1012 75 10000 11 140 02.08.2018 14:22
18 br Manaus Clouds 29 1013 70 10000 11 100 02.08.2018 14:21
19 bs Nassau Clouds 25 1024 78 10000 9 110 02.08.2018 14:22
20 ca Montreal Clear -21 1025 81 10000 4 120 02.08.2018 14:22
21 cd Kisangani Rain 25 1007 71 10000 9 201 02.08.2018 14:23
22 ch Andermatt Clouds 1 1027 90 10000 12 322 02.08.2018 14:23
23 ch Bern Clouds 5 1028 52 10000 28 290 02.08.2018 14:23
24 ck Avarua Rain 27 1012 78 10000 17 20 02.08.2018 14:22
25 cl Santiago Clear 27 999 36 10000 9 210 02.08.2018 14:23
26 cn Peking Clouds -4 1035 20 10000 7 34 02.08.2018 14:23
27 cn Lhasa Clear 0 1015 15 10000 12 340 02.08.2018 14:22
28 cn Shanghai Clouds 6 1021 61 10000 29 20 02.08.2018 14:21
29 de Dresden Clouds 6 1006 81 10000 24 260 02.08.2018 14:22
30 de Helgoland Rain 6 1007 80 10000 50 291 02.08.2018 14:22
31 de Bremen Clouds 5 1010 90 10000 32 280 02.08.2018 14:22
32 de Braunschweig Clouds 3 1010 84 10000 30 260 02.08.2018 14:21
33 de Flensburg Clouds 6 1003 81 10000 36 280 02.08.2018 14:21
34 de Kassel Rain 6 1013 75 10000 35 260 02.08.2018 14:21
35 de Emden Clouds 6 1010 90 10000 45 286 02.08.2018 14:21
36 de Berlin Rain 4 995 87 9000 37 250 02.08.2018 14:21
37 de Nürnberg Clouds 5 1019 81 10000 24 260 02.08.2018 14:21
38 de München Clouds 4 1023 74 10000 16 262 02.08.2018 14:21
39 de Oberstdorf Clouds 4 1022 75 2860 8 153 02.08.2018 14:21
40 de Freiburg Clouds 6 1025 79 10000 16 202 02.08.2018 14:22
41 de Frankfurt Clouds 8 1020 69 10000 37 240 02.08.2018 14:22
42 de Torfhaus Snow 1 1013 86 6996 28 259 02.08.2018 14:22
43 de Stuttgart Clouds 6 1022 75 10000 19 230 02.08.2018 14:22
44 de Köln Clouds 8 1023 67 10000 32 270 02.08.2018 14:21
45 de Hiddensee Clouds 7 1002 76 10000 45 271 02.08.2018 14:21
46 de Magdeburg Clouds 3 1009 96 7510 40 263 02.08.2018 14:22
47 de Hamburg Rain 4 1006 91 10000 33 270 02.08.2018 14:21
48 de Hannover Rain 6 1009 87 10000 41 250 02.08.2018 14:21
49 de Trier Clouds 8 1024 83 10000 22 261 02.08.2018 14:21
50 do Santo Domingo Clouds 26 1021 80 10000 28 30 02.08.2018 14:21
51 ec San Cristobal Rain 27 1010 83 10000 9 200 02.08.2018 14:22
52 eg Kairo Sand 17 1014 42 2000 39 260 02.08.2018 14:22
53 es Barcelona Clear 14 1026 52 10000 13 240 02.08.2018 14:22
54 es Madrid Clear 13 1025 41 10000 9 100 02.08.2018 14:23
55 es Palma de Mallorca Clouds 14 1028 64 10000 17 240 02.08.2018 14:22
56 es Las Palmas de Gran Canaria Clouds 20 1020 60 10000 14 3 02.08.2018 14:21
57 es Tarifa Clear 15 1025 61 10000 20 78 02.08.2018 14:21
58 es Sevilla Clear 15 1026 42 10000 7 70 02.08.2018 14:22
59 et Addis Abeba Clear 25 1010 13 10000 18 158 02.08.2018 14:23
60 fi Helsinki Clouds 1 994 83 10000 7 100 02.08.2018 14:21
61 fi Rovaniemi Snow -7 989 93 4200 9 290 02.08.2018 14:21
62 fj Suva Clouds 25 1005 94 10000 4 0 02.08.2018 14:21
63 fr Nizza Clouds 14 1020 66 10000 15 110 02.08.2018 14:22
64 fr Paris Clouds 10 1028 69 10000 24 270 02.08.2018 14:22
65 fr Bordeaux Clouds 12 1032 62 10000 4 0 02.08.2018 14:21
66 gb Glasgow Clouds 8 1016 75 10000 15 270 02.08.2018 14:21
67 gb London Clouds 10 1023 69 10000 28 260 02.08.2018 14:22
68 gb Manchester Clouds 9 1020 79 10000 33 270 02.08.2018 14:21
69 gl Nuuk Clouds -12 995 72 10000 6 150 02.08.2018 14:22
70 gr Athen Clouds 11 1021 36 10000 19 330 02.08.2018 14:22
71 id Jakarta Clouds 29 1009 74 10000 52 113 02.08.2018 14:22
72 ie Dublin Clouds 10 1023 76 10000 35 250 02.08.2018 14:21
73 in Nagpur Haze 22 1016 53 3000 0 0 02.08.2018 14:21
74 in Jagatsukh Clouds 1 1032 59 10000 22 28 02.08.2018 14:22
75 in Mumbai Smoke 30 1011 48 2500 9 20 02.08.2018 14:22
76 iq Bagdad Clear 17 1012 45 10000 15 180 02.08.2018 14:22
77 is Reykjavik Clouds -2 1006 69 10000 13 70 02.08.2018 14:22
78 it Palermo Clear 14 1024 46 10000 3 312 02.08.2018 14:22
79 it Rom Clouds 13 1023 63 10000 9 310 02.08.2018 14:23
80 it Mailand Clear 14 1019 55 10000 19 270 02.08.2018 14:21
81 jp Nagasaki Clouds 10 1019 66 10000 17 331 02.08.2018 14:21
82 jp Tokio Clear 8 1007 47 10000 28 250 02.08.2018 14:22
83 ke Nairobi Clouds 30 1017 20 10000 20 90 02.08.2018 14:22
84 kr Seoul Clear -3 1026 57 10000 13 310 02.08.2018 14:21
85 ma Casablanca Clouds 17 1025 59 10000 11 340 02.08.2018 14:23
86 ma Marrakesch Clouds 15 1024 41 8000 7 230 02.08.2018 14:23
87 mg Antananarivo Rain 25 1016 61 10000 19 130 02.08.2018 14:21
88 mn Uliastai Clouds -18 1039 71 10000 10 78 02.08.2018 14:23
89 mn Ulaanbaatar Clear -26 1024 76 10000 4 0 02.08.2018 14:23
90 mv Male Clouds 28 1010 78 9000 20 340 02.08.2018 14:23
91 mx Mexiko Stadt Mist 9 1020 82 8047 9 80 02.08.2018 14:21
92 mx Veracruz Mist 22 1018 100 6437 6 310 02.08.2018 14:21
93 no Hammerfest Snow -2 996 80 10000 15 30 02.08.2018 14:22
94 no Oslo Clouds -2 995 83 10000 7 10 02.08.2018 14:23
95 nz Wellington Rain 19 1011 89 10000 32 10 02.08.2018 14:23
96 pe Cusco Clouds 13 1030 67 10000 6 70 02.08.2018 14:23
97 pg Port Moresby Clouds 24 1007 100 10000 13 300 02.08.2018 14:21
98 ph Manila Clouds 27 1011 75 10000 9 110 02.08.2018 14:21
99 pt Lissabon Clear 13 1022 63 10000 14 270 02.08.2018 14:22
100 qa Doha Dust 22 1012 68 2500 22 120 02.08.2018 14:23
101 ru Moskau Clouds 0 1006 97 330 11 162 02.08.2018 14:22
102 ru Werchojansk Clouds -33 1012 100 6885 4 83 02.08.2018 14:22
103 ru Anadyr Mist -6 1004 92 4400 18 100 02.08.2018 14:23
104 ru Surgut Clouds -8 1020 85 10000 11 210 02.08.2018 14:23
105 ru Jakutsk Snow -38 1015 67 2400 7 20 02.08.2018 14:22
106 ru Amderma Clouds -5 999 91 3036 25 206 02.08.2018 14:23
107 sa Riad Clouds 21 1012 47 10000 13 105 02.08.2018 14:21
108 sb Honiara Clouds 26 1007 88 10000 0 71 02.08.2018 14:22
109 se Stockholm Snow -1 992 92 5000 7 20 02.08.2018 14:23
110 th Bangkok Clouds 27 1010 57 10000 10 183 02.08.2018 14:21
111 tr Ankara Clouds 2 1011 76 10000 9 110 02.08.2018 14:23
112 tr Alanya Clouds 9 1012 63 10000 46 256 02.08.2018 14:22
113 tr Istanbul Clouds 7 1017 53 10000 19 270 02.08.2018 14:23
114 ua Kiew Snow 1 1004 90 361 15 263 02.08.2018 14:21
115 us Denver Clear -9 1024 61 10000 2 197 02.08.2018 14:21
116 us Nome Fog -18 1012 85 805 9 40 02.08.2018 14:23
117 us Tucson Clear 4 1017 88 10000 6 180 02.08.2018 14:21
118 us New York Clouds 0 1026 66 10000 11 300 02.08.2018 14:22
119 us Chicago Clouds -9 1029 58 10000 17 220 02.08.2018 14:23
120 us Honolulu Clear 21 1013 91 10000 3 264 02.08.2018 14:22
121 us Miami Clouds 27 1024 71 10000 13 130 02.08.2018 14:23
122 us Death Valley Clouds 9 1024 27 10000 8 357 02.08.2018 14:22
123 us Fairbanks Snow -13 1011 83 9656 7 50 02.08.2018 14:23
124 us Las Vegas Clear 0 1024 47 10000 11 160 02.08.2018 14:21
125 us Los Angeles Clear 8 1024 44 10000 11 360 02.08.2018 14:22
126 uy Montevideo Clouds 24 1014 73 10000 26 150 02.08.2018 14:22
127 vn Hanoi Clear 21 1014 83 10000 12 145 02.08.2018 14:21
128 za Kapstadt Clear 26 1015 49 10000 22 170 02.08.2018 14:22